This is the latest recevied weather packets stored in our database for station/object KC5TIL. If no packets are shown the sender has not sent any weather packets the latest 10 day(s).
| Time | Temp. | Humidity | Pressure | Rain* | Wind** | Luminosity | Snow |
|---|---|---|---|---|---|---|---|
| 1788566095 | 35.56° C | 48% | 1011.4 hPa | 0 mm | - | 34 W/m² | - |
| 1788565790 | 35.56° C | 49% | 1011.1 hPa | 0 mm | - | 36 W/m² | - |
| 1788565489 | 35.56° C | 48% | 1011.3 hPa | 0 mm | - | 37 W/m² | - |
| 1788565186 | 36.11° C | 47% | 1011.5 hPa | 0 mm | - | 42 W/m² | - |
| 1788564880 | 36.11° C | 45% | 1011.4 hPa | 0 mm | - | 60 W/m² | - |
| 1788564577 | 36.67° C | 44% | 1011.3 hPa | 0 mm | - | 68 W/m² | - |
| 1788564273 | 37.22° C | 44% | 1011.3 hPa | 0 mm | - | 81 W/m² | - |
| 1788563969 | 36.67° C | 41% | 1010.9 hPa | 0 mm | - | 112 W/m² | - |
| 1788563664 | 36.67° C | 43% | 1011.4 hPa | 0 mm | - | 113 W/m² | - |
| 1788563359 | 36.11° C | 44% | 1011.4 hPa | 0 mm | - | 100 W/m² | - |
| 1788563058 | 35.56° C | 44% | 1011.3 hPa | 0 mm | - | 95 W/m² | - |
| 1788562753 | 35.56° C | 44% | 1011.5 hPa | 0 mm | - | 86 W/m² | - |
| 1788562451 | 36.11° C | 44% | 1011.5 hPa | 0 mm | - | 70 W/m² | - |
| 1788562151 | 36.67° C | 44% | 1011.5 hPa | 0 mm | - | 69 W/m² | - |
| 1788561847 | 36.67° C | 41% | 1011.4 hPa | 0 mm | - | 228 W/m² | - |
| 1788561541 | 36.67° C | 42% | 1011.5 hPa | 0 mm | - | 146 W/m² | - |
| 1788561241 | 36.67° C | 43% | 1011.5 hPa | 0 mm | - | 255 W/m² | - |
| 1788560936 | 36.67° C | 47% | 1011.6 hPa | 0 mm | - | 234 W/m² | - |
| 1788560631 | 37.22° C | 42% | 1011.6 hPa | 0 mm | - | 89 W/m² | - |
| 1788560331 | 37.22° C | 44% | 1011.5 hPa | 0 mm | - | 344 W/m² | - |
| 1788560026 | 36.67° C | 43% | 1011.5 hPa | 0 mm | - | 267 W/m² | - |
| 1788559721 | 36.67° C | 44% | 1011.5 hPa | 0 mm | - | 110 W/m² | - |
| 1788559420 | 37.22° C | 43% | 1011.6 hPa | 0 mm | - | 115 W/m² | - |
| 1788559116 | 37.22° C | 42% | 1011.6 hPa | 0 mm | - | 288 W/m² | - |
| 1788558811 | 37.22° C | 44% | 1011.6 hPa | 0 mm | - | 444 W/m² | - |
* Rain latest hour (hover to see other rain measurements)
** Current wind speed in m/s (hover to see current wind gust speed)